Terminal Aerodrome Forecast
Issued by NWS Riverton, WY

Home | Current Version | Previous Version | Text Only | Print | Product List | Glossary On
Versions: 1 2 3 4 5 6 7 8 9 10 11 12 13
000
FTUS45 KRIW 202000 AAA
TAFRIW
TAF AMD
KRIW 202035Z 2021/2118 30011KT P6SM SCT090 BKN250
     FM202200 30015G25KT P6SM FEW120 SCT250
     FM210000 36012G22KT P6SM SCT250
     FM210300 04010KT P6SM SCT250
     FM210600 08008KT P6SM SCT250=

USA.gov is the U.S. government's official web portal to all federal, state and local government web resources and services.